Dewpoint
68 65 65 64 58 57 48 45 47 48 48 50 50 50 52 55 55 56 63 64 65 68 70 71 72 72 73 73 73 74 73 73 72 72 72 72 73 73 73 73 73 72 72 72 73 73 73 73 72
67 66 63 60 51 48 46 45 44 45 46 48 49 51 55 56 59 61 63 64 65 66 68 70 73 72 71 71 71 72 73 72 72 72 72 72 72 72 72 72 73 73 73 73 72 72 72 72 72
70 64 62 57 53 49 50 46 45 46 47 46 47 51 57 58 60 62 65 65 63 65 68 71 73 72 71 71 72 71 72 72 73 72 72 71 71 71 72 73 73 73 73 73 72 72 72 71 71
61 61 58 53 53 55 55 48 47 47 49 46 46 52 56 59 59 63 66 67 66 67 70 71 71 71 72 70 70 70 71 71 70 70 70 71 70 70 72 72 73 72 73 72 71 71 71 71 71
59 53 49 49 51 55 54 47 49 48 46 46 46 52 57 59 61 65 66 68 67 67 69 71 71 71 70 70 71 70 70 69 70 70 68 71 70 69 73 73 73 73 72 71 71 71 71 70 70
55 55 49 47 50 54 55 46 48 47 44 45 46 56 58 61 61 62 64 64 67 66 68 70 70 71 72 72 71 71 70 69 71 69 69 69 70 70 72 72 72 72 71 71 70 70 70 70 69
49 49 50 48 52 52 53 47 49 46 47 46 46 55 59 61 62 62 63 64 65 67 68 69 70 70 70 70 70 71 71 70 71 69 68 67 71 69 72 72 71 71 70 70 70 70 69 69 70
52 52 49 49 50 54 54 54 47 49 48 50 48 51 57 61 62 63 65 66 67 67 67 68 69 71 72 71 70 70 70 70 71 71 69 70 69 71 72 72 71 71 71 70 70 70 70 71 71
52 51 49 51 51 53 53 55 48 48 47 48 50 57 60 61 61 62 62 66 67 67 68 69 70 71 72 71 71 70 70 70 70 69 70 71 70 70 72 70 71 71 71 71 71 71 71 72 72
48 48 53 55 51 52 54 54 51 48 51 55 56 55 58 60 60 60 61 63 64 66 66 70 70 68 71 71 71 70 71 69 69 69 70 71 70 69 67 70 71 71 71 71 71 72 72 72 60
47 50 50 52 54 52 53 53 55 51 52 54 52 56 57 58 59 59 61 62 62 65 67 69 69 69 70 69 69 70 69 69 68 70 70 69 71 70 69 71 69 70 70 70 69 70 65 69 69
48 51 50 54 54 53 51 51 51 52 54 55 54 58 59 58 59 59 61 63 64 65 67 68 69 68 68 68 67 68 68 69 69 70 69 71 70 68 66 65 65 69 66 68 70 66 66 67 67
48 50 51 54 54 54 54 52 50 53 53 52 51 56 57 57 58 58 60 62 63 63 66 68 68 68 69 69 67 66 65 67 68 70 69 71 69 69 66 65 66 64 67 68 67 71 58 69 66
45 50 52 53 54 54 52 52 51 58 56 50 50 51 52 57 53 57 57 58 59 62 64 68 69 70 69 68 67 66 66 67 67 67 67 69 69 67 66 64 66 66 68 67 68 69 68 68 69
46 48 51 53 54 52 54 53 50 58 58 50 49 50 51 52 52 52 54 59 60 62 65 67 68 69 69 69 67 67 68 68 68 67 68 65 67 66 70 66 67 67 69 70 71 71 66 65 68
45 46 45 50 52 52 51 49 57 55 56 51 48 50 51 51 51 52 54 58 59 62 65 66 67 67 69 68 69 69 69 68 69 69 67 65 68 67 69 68 66 67 69 70 71 66 65 59 64
40 39 37 45 51 52 50 48 54 59 57 51 49 49 51 53 52 53 55 59 61 63 64 65 66 66 66 68 68 68 67 69 70 68 65 68 66 68 70 68 69 70 70 70 66 59 57 64 65
34 29 29 34 47 46 46 47 48 50 53 51 50 49 51 53 52 54 55 59 63 63 65 64 65 66 67 68 67 67 68 69 69 66 66 68 68 68 70 69 68 69 70 70 69 63 65 66 67
28 28 27 32 37 43 44 49 48 49 48 52 52 49 51 53 54 54 55 58 62 63 64 65 66 67 67 67 66 66 66 66 68 68 70 68 69 68 69 71 67 69 69 69 68 68 66 67 62
27 26 24 31 41 43 45 49 49 48 47 47 51 48 50 51 53 55 54 55 61 63 63 64 67 68 67 66 66 65 66 63 67 68 68 68 67 67 68 70 70 68 68 70 68 68 67 66 66
25 22 23 25 36 47 42 47 47 49 48 49 49 50 49 51 52 54 53 55 58 63 63 64 66 67 66 64 67 67 66 66 66 67 68 66 68 67 69 70 70 70 70 69 69 69 67 66 67
24 26 26 24 26 31 45 42 46 51 49 48 49 50 49 52 53 53 52 54 57 61 63 67 66 66 67 67 67 66 61 66 66 64 66 67 68 67 67 69 69 70 71 69 68 69 68 66 67
25 24 24 24 28 30 42 42 48 45 45 47 50 50 50 50 51 53 53 53 55 60 62 65 66 67 66 68 68 68 65 64 65 67 68 69 69 68 67 69 70 70 71 69 68 69 69 69 69
25 24 25 25 27 36 41 36 46 46 41 43 50 49 50 48 49 54 55 55 56 57 59 64 66 68 68 67 68 68 66 66 66 64 62 56 67 68 68 68 70 71 70 70 69 69 69 70 69
22 22 21 22 29 29 35 33 36 43 47 47 51 50 51 51 51 55 55 55 55 57 57 61 66 67 67 67 66 69 68 67 64 67 65 60 65 65 68 70 70 71 70 71 71 69 70 68 70
21 21 20 20 18 19 29 23 34 34 38 39 47 50 51 50 51 52 55 56 57 58 59 60 65 66 66 68 67 68 69 68 67 67 67 68 65 65 66 69 70 69 70 71 70 70 68 69 69
20 19 18 18 16 15 18 27 26 30 37 38 39 45 50 50 49 51 54 57 57 59 60 61 65 67 67 66 68 69 69 69 67 65 68 66 68 66 66 68 70 70 71 71 71 68 70 69 69
16 15 12 15 22 20 21 22 28 40 45 39 36 37 42 50 50 50 54 56 58 58 60 61 66 67 67 66 67 68 69 70 70 70 67 66 66 61 69 68 71 69 69 70 71 70 70 68 70
17 16 15 14 17 17 16 25 29 39 40 35 36 39 40 41 47 49 53 55 57 57 59 60 65 67 67 67 67 67 68 69 70 69 69 68 69 69 69 69 69 69 70 71 71 71 71 69 68
20 19 18 17 18 19 19 21 27 30 29 28 37 40 44 44 45 50 53 56 57 58 59 60 62 65 67 67 68 68 68 68 68 69 69 70 69 70 70 70 71 71 70 70 69 70 69 70 70
Wind_Speed
10 13 14 9 5 5 7 9 15 10 11 13 14 11 20 16 7 12 16 23 24 21 17 16 14 11 11 12 13 15 14 14 14 13 11 10 10 10 9 9 11 14 12 11 10 10 10 9 9
13 18 5 6 7 8 7 14 16 16 12 8 9 13 22 17 20 17 19 23 23 21 20 16 14 14 13 11 9 11 12 11 11 10 7 7 9 9 10 8 10 12 11 11 10 8 8 8 8
15 11 4 2 8 9 7 10 13 10 4 7 5 12 9 3 16 8 24 14 23 22 20 16 16 14 14 11 10 9 9 8 9 8 7 8 8 11 5 7 9 10 11 10 10 7 7 6 7
8 8 8 11 7 5 25 1 9 12 14 5 5 12 15 13 8 17 24 22 20 19 22 16 18 15 12 10 11 10 10 11 11 13 14 10 5 9 6 7 7 10 9 9 8 6 6 6 5
13 12 12 4 1 5 19 6 11 10 1 12 7 14 10 10 19 26 21 22 19 19 19 16 19 17 16 12 15 14 11 11 13 13 9 1 4 3 6 7 7 8 7 7 6 6 6 5 5
6 5 5 7 2 6 18 3 7 7 4 6 1 17 9 14 14 20 21 22 17 19 19 16 18 11 16 16 12 12 11 9 12 12 1 5 6 5 4 6 7 7 6 6 5 6 7 6 8
10 8 10 11 6 12 9 7 9 4 16 9 3 10 10 15 14 11 14 21 21 16 17 16 15 12 12 14 12 11 11 12 12 7 8 5 6 10 8 9 8 6 5 6 7 8 10 10 12
4 8 5 6 2 8 18 22 6 13 3 4 6 7 13 17 18 12 22 19 16 19 19 16 15 13 13 13 13 13 11 13 7 7 2 8 13 12 11 10 9 7 7 7 7 10 13 13 15
8 3 9 10 15 8 7 9 1 4 2 11 7 18 21 21 21 18 16 20 16 13 18 17 16 13 11 12 11 12 13 13 11 8 7 13 14 14 14 14 11 10 9 9 10 14 17 12 6
11 3 6 17 14 6 2 15 3 6 11 10 12 21 23 21 15 14 18 16 13 15 11 14 16 15 13 11 12 11 12 8 9 7 7 14 15 14 16 12 12 12 11 12 14 18 16 11 9
6 6 6 9 9 12 8 10 4 1 5 4 3 21 17 13 11 19 19 24 20 16 14 13 13 15 13 11 11 9 8 10 8 6 10 17 18 11 12 12 12 12 12 11 13 7 8 13 22
5 6 7 5 8 10 7 2 7 8 8 4 17 25 21 18 18 14 13 9 12 14 17 16 15 14 14 12 11 12 9 10 12 15 20 20 19 15 11 11 13 14 10 14 15 9 31 24 9
7 6 4 4 6 6 7 7 3 7 13 13 11 25 19 16 15 14 20 23 21 15 19 17 17 14 13 13 12 10 12 12 12 15 18 3 12 7 12 1 6 4 3 7 7 29 10 12 11
6 5 6 1 2 3 7 8 9 13 16 13 11 14 16 24 16 22 19 12 12 17 16 17 16 15 16 13 14 13 11 12 13 12 11 21 19 8 6 5 8 1 5 5 7 6 7 18 24
10 9 12 7 6 3 2 5 3 16 20 8 13 15 12 14 12 12 11 17 17 18 16 16 18 15 14 13 15 13 12 9 12 9 17 7 2 2 3 10 8 5 2 6 9 10 14 28 29
16 19 6 11 11 10 7 3 12 7 25 18 16 13 14 10 11 9 9 19 15 20 19 16 17 18 17 14 12 13 13 7 9 14 10 2 3 4 8 4 8 2 6 10 9 21 22 17 12
10 13 12 9 16 14 11 2 18 31 36 9 11 18 14 10 12 10 12 20 19 17 17 17 14 17 15 11 9 8 10 11 19 18 12 10 5 6 8 10 5 4 9 9 4 19 23 11 14
17 12 12 4 13 7 11 8 6 12 6 12 13 20 17 15 13 13 13 21 25 19 18 12 16 16 13 8 2 2 6 8 10 8 12 11 8 7 7 10 5 3 10 11 14 20 19 10 16
9 13 14 5 5 5 12 17 11 18 14 19 22 17 19 21 20 17 17 19 19 19 18 15 18 14 13 9 5 4 1 6 16 6 5 7 8 6 7 9 6 9 9 6 9 8 11 8 14
14 19 9 4 4 6 18 4 6 18 19 20 18 18 23 20 19 20 20 20 24 22 18 17 20 17 14 11 10 7 14 15 9 10 16 8 5 2 8 10 11 6 17 12 7 3 8 9 7
19 11 9 12 1 9 7 16 28 27 18 19 23 16 18 23 22 23 20 22 20 24 24 20 16 15 16 15 12 9 4 5 6 10 11 8 8 7 10 9 5 9 13 7 3 2 7 12 13
19 7 12 18 13 11 14 11 15 17 25 20 20 20 22 27 23 24 23 23 24 21 19 21 19 18 16 13 14 12 13 13 11 10 9 11 10 10 10 6 3 8 8 4 2 8 4 10 11
12 17 15 21 20 14 17 9 1 14 24 21 25 25 28 28 25 29 26 23 26 25 22 20 20 19 16 12 13 14 13 9 8 7 10 1 10 8 10 8 6 3 5 7 4 5 7 7 12
8 17 23 26 25 11 24 18 14 18 20 24 26 23 23 22 25 24 21 23 22 26 23 24 21 20 17 16 14 14 12 10 2 9 5 13 11 11 12 11 9 5 6 3 6 3 5 6 8
11 17 23 16 3 15 25 16 14 36 31 29 32 28 26 17 13 27 25 25 22 26 25 24 25 21 19 18 15 13 9 6 11 11 16 22 15 6 13 14 12 10 6 2 5 6 6 4 8
19 18 22 26 26 9 19 8 11 14 15 13 25 27 27 21 17 26 30 28 28 26 25 25 27 23 22 19 19 16 13 12 18 11 11 12 8 10 4 5 12 11 7 10 8 8 8 8 10
20 20 19 23 21 22 10 10 11 8 16 13 19 23 28 28 25 22 28 29 26 27 26 24 28 25 23 22 19 17 16 15 12 14 13 11 7 12 11 10 21 10 8 7 2 5 11 8 6
15 16 19 18 15 19 16 14 2 12 20 6 11 12 13 27 28 26 28 29 25 26 26 23 27 26 24 22 21 19 18 17 16 13 14 14 10 16 11 19 19 13 5 5 5 7 2 4 7
12 16 12 21 15 18 19 4 13 23 25 10 12 12 11 7 19 23 28 28 25 22 26 25 25 25 24 23 21 20 19 18 17 16 12 13 9 12 10 9 11 8 6 8 9 8 8 5 9
17 17 20 16 14 16 15 18 13 17 8 8 12 13 14 9 9 19 20 27 27 24 24 25 25 25 25 23 21 22 19 19 19 18 16 12 13 11 10 7 7 6 9 11 11 12 13 10 14
Wind_Direction
219 223 224 285 268 303 259 109 91 60 56 60 49 63 78 62 65 118 119 110 126 127 128 124 122 117 114 113 124 124 121 118 117 114 115 117 119 117 117 127 140 143 142 142 149 152 164 159 151
241 256 266 260 47 336 313 103 76 63 77 117 81 57 84 73 94 126 114 131 136 134 125 120 115 116 110 107 113 118 121 122 118 112 114 110 111 119 122 126 134 141 149 145 145 152 155 157 157
249 272 254 192 118 242 277 81 85 93 64 16 94 99 77 46 67 94 110 116 130 129 117 116 105 103 102 105 105 99 102 96 91 90 82 91 93 95 120 145 144 143 150 148 145 157 161 168 171
263 216 237 258 126 254 271 158 85 68 26 66 19 85 81 50 106 125 117 102 97 104 106 119 115 106 84 97 96 94 84 81 76 72 59 56 86 140 162 154 157 161 153 148 149 163 176 186 174
239 266 274 359 170 226 282 89 117 75 150 37 37 105 91 71 94 115 125 122 121 118 123 108 98 104 104 97 97 96 90 91 83 88 96 135 218 192 159 153 155 154 149 141 154 178 209 218 225
250 293 316 307 285 311 280 84 93 78 132 97 165 96 84 108 125 130 147 134 133 131 129 121 118 113 104 92 92 94 97 93 94 95 252 233 208 220 191 168 169 175 156 151 184 213 234 244 246
328 320 342 302 65 258 311 89 24 161 75 57 28 109 116 129 131 121 97 121 141 143 137 143 143 148 142 138 121 95 95 82 121 141 231 252 225 215 199 190 187 185 175 186 207 228 242 244 251
268 352 285 330 318 7 307 348 343 85 75 112 19 157 153 142 141 146 114 121 132 154 158 146 151 149 145 141 142 117 103 93 91 157 121 277 234 214 198 203 193 199 210 216 233 244 248 248 257
284 349 341 321 303 161 203 258 143 345 40 69 47 92 129 146 145 145 139 123 143 154 143 147 144 136 128 138 150 125 114 114 111 133 211 234 216 210 194 210 179 211 219 235 240 254 254 253 299
270 19 215 234 297 94 172 313 360 290 59 47 317 105 127 142 152 157 148 134 147 146 145 148 147 144 134 128 120 120 111 114 134 159 235 253 232 215 200 174 194 218 222 241 244 252 271 275 275
16 315 343 313 336 305 144 242 319 255 75 86 225 120 132 134 157 181 170 175 164 153 143 155 151 134 133 130 131 138 147 149 166 206 246 263 236 199 182 182 209 219 221 237 231 291 256 275 222
333 249 340 334 287 285 261 215 243 63 175 151 251 134 142 167 180 190 113 117 132 165 151 153 151 146 147 147 147 155 171 200 187 205 189 236 241 212 236 186 208 217 201 214 139 117 281 284 290
281 0 352 294 278 255 277 255 195 136 192 168 133 145 158 166 175 173 167 155 162 164 140 154 151 151 153 155 158 185 203 211 216 216 195 41 276 184 238 58 239 247 18 334 286 161 239 281 291
325 261 292 166 194 230 244 215 243 337 307 131 158 147 159 169 180 174 150 148 149 153 144 152 152 155 160 171 175 193 219 228 235 230 209 182 236 233 108 232 253 183 313 303 310 336 343 32 351
286 254 243 188 194 186 172 219 233 145 271 186 181 160 173 169 151 150 161 150 152 147 138 155 151 166 166 182 184 191 225 215 247 255 246 229 136 130 295 224 256 158 283 282 290 357 30 56 2
261 313 217 171 193 169 192 242 133 200 195 217 163 149 176 170 175 164 135 141 140 132 144 161 157 161 178 178 177 198 193 200 238 211 205 163 111 170 261 211 244 147 277 267 66 41 359 65 20
278 251 241 170 187 153 204 268 189 201 226 122 215 171 147 193 165 160 141 133 137 141 149 160 165 165 155 171 196 218 163 192 216 227 160 163 175 199 271 270 142 170 259 102 98 59 306 266 199
289 328 310 309 171 205 243 221 194 205 109 193 244 169 170 179 188 164 157 137 138 148 148 167 151 136 158 169 206 251 77 340 316 316 159 156 173 205 242 284 78 249 296 39 101 148 227 241 162
295 284 281 102 127 241 266 178 190 197 197 198 226 182 164 186 168 182 154 141 146 155 152 155 144 153 159 171 169 204 92 114 259 129 354 171 155 198 241 284 200 239 253 108 55 18 330 303 189
278 274 356 27 173 178 1 42 214 202 216 218 214 201 180 192 177 179 158 153 156 157 165 179 160 160 180 176 185 177 156 211 249 109 214 184 176 197 253 254 272 228 26 325 95 50 296 322 227
268 293 346 301 82 93 327 356 330 323 207 209 227 235 193 187 186 175 166 157 158 156 167 179 163 172 181 188 176 174 220 290 245 220 184 200 170 191 248 278 320 10 164 238 118 344 332 316 353
283 27 304 293 288 306 162 187 272 347 320 209 229 221 238 182 193 164 170 165 161 161 167 160 173 181 201 204 176 189 183 167 226 187 199 175 183 194 223 245 267 264 350 5 309 23 337 343 325
298 311 304 294 287 260 181 130 77 49 281 248 208 224 229 179 188 173 173 174 161 162 170 166 173 179 201 205 188 192 214 229 185 70 69 77 182 203 226 219 245 263 301 319 28 5 343 345 328
316 285 284 269 259 59 297 280 178 195 164 244 250 204 230 219 187 163 159 161 165 163 173 168 176 181 201 203 210 220 225 220 5 125 67 298 261 198 219 223 208 216 244 296 312 232 274 300 314
242 261 277 284 132 253 235 256 165 209 189 204 212 193 207 218 172 159 167 166 180 169 173 170 174 186 197 201 219 226 232 126 276 168 158 231 239 280 221 216 187 201 207 260 269 273 266 259 262
262 269 290 304 317 312 236 349 144 173 143 158 177 181 182 198 222 171 168 173 180 174 173 175 173 184 191 197 205 221 232 209 210 219 222 225 189 229 201 230 242 200 177 206 243 267 232 263 230
251 253 271 289 301 299 10 1 322 126 127 151 162 164 172 182 193 194 173 174 177 169 175 178 172 180 189 202 202 208 213 225 226 219 225 238 200 232 207 196 265 226 188 200 148 274 304 295 204
259 291 291 274 293 289 318 300 40 60 34 224 131 141 159 178 185 195 169 171 176 172 174 180 172 179 187 201 201 204 209 212 233 246 215 223 206 239 202 157 217 250 164 177 204 247 111 333 311
248 237 234 271 284 292 293 146 236 165 202 174 162 142 141 174 177 182 171 174 177 177 174 179 174 182 188 198 200 205 206 208 216 238 236 227 239 231 245 186 203 220 188 229 206 239 270 249 238
222 257 273 234 247 247 273 298 103 14 32 334 160 141 137 159 183 170 171 163 172 180 174 179 183 185 189 195 206 201 204 211 207 216 237 216 226 252 253 251 231 246 252 234 228 224 247 228 227